| time (UTC) | temp C | wind direction | speed KPH | gust KPH | rain 1hr cm | rain 24hr cm | rain mn cm | humidity % | barometer mb |
| 20260504160134 | 32 | 180 | 0.0 | 8.0 | 0.00 | 0.00 | 0.00 | 100 | |
| 20260504151131 | 33 | 180 | 8.0 | 8.0 | 0.00 | 0.00 | 0.00 | 100 | |
| 20260504150630 | 34 | 180 | 6.4 | 11.3 | 0.00 | 0.00 | 0.00 | 100 | |
| 20260504150130 | 32 | 180 | 0.0 | 9.7 | 0.00 | 0.00 | 0.00 | 100 | |
| 20260504141127 | 35 | 180 | 0.0 | 6.4 | 0.00 | 0.00 | 0.00 | 100 | |
| 20260504140627 | 35 | 180 | 0.0 | 8.0 | 0.00 | 0.00 | 0.00 | 100 | |
| 20260504130623 | 31 | 180 | 0.0 | 8.0 | 0.00 | 0.00 | 0.00 | 100 | |
| 20260504130123 | 31 | 180 | 0.0 | 6.4 | 0.00 | 0.00 | 0.00 | 100 | |
| 20260504120119 | 27 | 180 | 0.0 | 3.2 | 0.00 | 0.00 | 0.00 | 100 | |
| 20260504110616 | 23 | 180 | 0.0 | 0.0 | 0.00 | 0.00 | 0.00 | 100 | |
| 20260504110118 | 24 | 180 | 0.0 | 0.0 | 0.00 | 0.00 | 0.00 | 100 | |
| 20260504100613 | 21 | 180 | 0.0 | 0.0 | 0.00 | 0.00 | 0.00 | 100 | |
| 20260504100112 | 21 | 180 | 0.0 | 0.0 | 0.00 | 0.00 | 0.00 | 100 | |
| 20260504090109 | 21 | 180 | 0.0 | 0.0 | 0.00 | 0.00 | 0.00 | 100 | |
| 20260504081606 | 21 | 180 | 0.0 | 0.0 | 0.00 | 0.00 | 0.00 | 100 | |
| 20260504080606 | 22 | 180 | 0.0 | 4.8 | 0.00 | 0.00 | 0.00 | 100 | |
| 20260504080156 | 22 | 180 | 0.0 | 0.0 | 0.00 | 0.00 | 0.00 | 100 | |
| 20260504080105 | 22 | 180 | 0.0 | 0.0 | 0.00 | 0.00 | 0.00 | 100 | |
| 20260504050555 | 23 | 180 | 0.0 | 6.4 | 0.00 | 0.00 | 0.00 | 100 | |
| 20260504045555 | 22 | 180 | 0.0 | 8.0 | 0.00 | 0.00 | 0.00 | 100 | |
| 20260504045054 | 22 | 180 | 0.0 | 6.4 | 0.00 | 0.00 | 0.00 | 100 | |
| 20260504044554 | 23 | 180 | 0.0 | 0.0 | 0.00 | 0.00 | 0.00 | 100 | |
| 20260504044054 | 23 | 180 | 0.0 | 0.0 | 0.00 | 0.00 | 0.00 | 100 | |
| 20260504043553 | 23 | 180 | 0.0 | 0.0 | 0.00 | 0.00 | 0.00 | 100 | |
| 20260504043053 | 24 | 180 | 0.0 | 0.0 | 0.00 | 0.00 | 0.00 | 100 | |
| 20260504042554 | 23 | 180 | 0.0 | 0.0 | 0.00 | 0.00 | 0.00 | 100 | |
| 20260504042052 | 23 | 180 | 0.0 | 0.0 | 0.00 | 0.00 | 0.00 | 100 | |
| 20260504041552 | 23 | 180 | 0.0 | 0.0 | 0.00 | 0.00 | 0.00 | 100 | |
| 20260504041052 | 23 | 180 | 0.0 | 0.0 | 0.00 | 0.00 | 0.00 | 100 | |
| 20260504040552 | 23 | 180 | 0.0 | 0.0 | 0.00 | 0.00 | 0.00 | 100 | |
| 20260504040051 | 24 | 180 | 0.0 | 0.0 | 0.00 | 0.00 | 0.00 | 100 | |
| 20260504035552 | 23 | 180 | 0.0 | 0.0 | 0.00 | 0.00 | 0.00 | 100 | |
| 20260504035051 | 24 | 180 | 0.0 | 0.0 | 0.00 | 0.00 | 0.00 | 100 | |
| 20260504034550 | 24 | 180 | 0.0 | 0.0 | 0.00 | 0.00 | 0.00 | 100 | |
| 20260504034050 | 24 | 180 | 0.0 | 0.0 | 0.00 | 0.00 | 0.00 | 100 | |
| 20260504033550 | 25 | 180 | 0.0 | 0.0 | 0.00 | 0.00 | 0.00 | 100 | |
| 20260504033050 | 24 | 180 | 0.0 | 0.0 | 0.00 | 0.00 | 0.00 | 100 | |
| 20260504032550 | 24 | 180 | 0.0 | 0.0 | 0.00 | 0.00 | 0.00 | 100 | |
| 20260504032049 | 24 | 180 | 0.0 | 0.0 | 0.00 | 0.00 | 0.00 | 100 | |
| 20260504031048 | 24 | 180 | 0.0 | 0.0 | 0.00 | 0.00 | 0.00 | 100 | |
| 20260504030548 | 24 | 180 | 0.0 | 0.0 | 0.00 | 0.00 | 0.00 | 100 | |
| 20260504030048 | 24 | 180 | 0.0 | 3.2 | 0.00 | 0.00 | 0.00 | 100 | |
| 20260504025047 | 24 | 180 | 0.0 | 0.0 | 0.00 | 0.00 | 0.00 | 100 | |
| 20260504024047 | 25 | 180 | 0.0 | 0.0 | 0.00 | 0.00 | 0.00 | 100 | |
| 20260504022046 | 25 | 180 | 0.0 | 4.8 | 0.00 | 0.00 | 0.00 | 100 | |
| 20260504020044 | 25 | 180 | 0.0 | 0.0 | 0.00 | 0.00 | 0.00 | 100 | |
| 20260504015044 | 24 | 180 | 0.0 | 0.0 | 0.00 | 0.00 | 0.00 | 100 | |
| 20260504014043 | 25 | 180 | 0.0 | 0.0 | 0.00 | 0.00 | 0.00 | 100 | |
| 20260504013043 | 26 | 180 | 0.0 | 0.0 | 0.00 | 0.00 | 0.00 | 100 | |
| 20260504012042 | 26 | 180 | 0.0 | 0.0 | 0.00 | 0.00 | 0.00 | 100 | |
| 20260504011041 | 26 | 180 | 0.0 | 0.0 | 0.00 | 0.00 | 0.00 | 100 | |
| 20260504010547 | 26 | 180 | 0.0 | 0.0 | 0.00 | 0.00 | 0.00 | 100 | |
| 20260504005547 | 26 | 180 | 0.0 | 0.0 | 0.00 | 0.00 | 0.00 | 100 | |
| 20260504004540 | 26 | 180 | 0.0 | 0.0 | 0.00 | 0.00 | 0.00 | 100 | |
| 20260504004040 | 26 | 180 | 0.0 | 0.0 | 0.00 | 0.00 | 0.00 | 100 | |
| 20260504003539 | 26 | 180 | 0.0 | 0.0 | 0.00 | 0.00 | 0.00 | 100 | |
| 20260504003039 | 26 | 180 | 0.0 | 0.0 | 0.00 | 0.00 | 0.00 | 100 | |
| 20260504002539 | 27 | 180 | 0.0 | 0.0 | 0.00 | 0.00 | 0.00 | 100 | |
| 20260504002039 | 26 | 180 | 0.0 | 0.0 | 0.00 | 0.00 | 0.00 | 100 | |
| 20260504001538 | 26 | 180 | 0.0 | 0.0 | 0.00 | 0.00 | 0.00 | 100 | |
| 20260504001038 | 27 | 180 | 0.0 | 0.0 | 0.00 | 0.00 | 0.00 | 100 | |
| 20260504000538 | 27 | 180 | 0.0 | 0.0 | 0.00 | 0.00 | 0.00 | 100 | |
| 20260503235537 | 27 | 180 | 0.0 | 0.0 | 0.00 | 0.00 | 0.00 | 100 | |
| 20260503235037 | 26 | 180 | 0.0 | 0.0 | 0.00 | 0.00 | 0.00 | 100 | |
| 20260503234536 | 27 | 180 | 0.0 | 0.0 | 0.00 | 0.00 | 0.00 | 100 | |
| 20260503234036 | 27 | 180 | 0.0 | 0.0 | 0.00 | 0.00 | 0.00 | 100 | |
| 20260503233536 | 27 | 180 | 0.0 | 0.0 | 0.00 | 0.00 | 0.00 | 100 | |
| 20260503233036 | 27 | 180 | 0.0 | 0.0 | 0.00 | 0.00 | 0.00 | 100 | |
| 20260503232536 | 27 | 180 | 0.0 | 0.0 | 0.00 | 0.00 | 0.00 | 100 | |
| 20260503232035 | 28 | 180 | 0.0 | 0.0 | 0.00 | 0.00 | 0.00 | 100 | |
| 20260503231534 | 27 | 180 | 0.0 | 0.0 | 0.00 | 0.00 | 0.00 | 100 | |
| 20260503231034 | 28 | 180 | 0.0 | 0.0 | 0.00 | 0.00 | 0.00 | 100 | |
| 20260503230534 | 27 | 180 | 0.0 | 0.0 | 0.00 | 0.00 | 0.00 | 100 | |
| 20260503230034 | 28 | 180 | 0.0 | 0.0 | 0.00 | 0.00 | 0.00 | 100 | |
| 20260503222031 | 28 | 180 | 0.0 | 0.0 | 0.00 | 0.00 | 0.00 | 100 | |
| 20260503221531 | 28 | 180 | 0.0 | 0.0 | 0.00 | 0.00 | 0.00 | 100 | |
| 20260503221031 | 28 | 180 | 0.0 | 0.0 | 0.00 | 0.00 | 0.00 | 100 | |
| 20260503220530 | 28 | 180 | 0.0 | 0.0 | 0.00 | 0.00 | 0.00 | 100 | |
| 20260503220030 | 28 | 180 | 0.0 | 0.0 | 0.00 | 0.00 | 0.00 | 100 | |
| 20260503215530 | 28 | 180 | 0.0 | 0.0 | 0.00 | 0.00 | 0.00 | 100 | |
| 20260503215030 | 28 | 180 | 0.0 | 0.0 | 0.00 | 0.00 | 0.00 | 100 | |
| 20260503214529 | 29 | 180 | 0.0 | 0.0 | 0.00 | 0.00 | 0.00 | 100 | |
| 20260503214029 | 29 | 180 | 0.0 | 0.0 | 0.00 | 0.00 | 0.00 | 100 | |
| 20260503213529 | 28 | 180 | 0.0 | 0.0 | 0.00 | 0.00 | 0.00 | 100 | |
| 20260503213028 | 28 | 180 | 0.0 | 0.0 | 0.00 | 0.00 | 0.00 | 100 | |
| 20260503212529 | 28 | 180 | 0.0 | 0.0 | 0.00 | 0.00 | 0.00 | 100 | |
| 20260503212028 | 29 | 180 | 0.0 | 0.0 | 0.00 | 0.00 | 0.00 | 100 | |
| 20260503211528 | 28 | 180 | 0.0 | 0.0 | 0.00 | 0.00 | 0.00 | 100 | |
| 20260503211027 | 30 | 180 | 0.0 | 0.0 | 0.00 | 0.00 | 0.00 | 100 | |
| 20260503210527 | 29 | 180 | 0.0 | 0.0 | 0.00 | 0.00 | 0.00 | 100 | |
| 20260503210027 | 29 | 180 | 0.0 | 0.0 | 0.00 | 0.00 | 0.00 | 100 | |
| 20260503205527 | 30 | 180 | 0.0 | 0.0 | 0.00 | 0.00 | 0.00 | 100 | |
| 20260503205026 | 30 | 180 | 0.0 | 4.8 | 0.00 | 0.00 | 0.00 | 100 | |
| 20260503203525 | 30 | 180 | 0.0 | 0.0 | 0.00 | 0.00 | 0.00 | 100 | |
| 20260503203025 | 30 | 180 | 0.0 | 0.0 | 0.00 | 0.00 | 0.00 | 100 | |
| 20260503202525 | 30 | 180 | 0.0 | 0.0 | 0.00 | 0.00 | 0.00 | 100 | |
| 20260503202024 | 30 | 180 | 0.0 | 4.8 | 0.00 | 0.00 | 0.00 | 100 | |
| 20260503201525 | 29 | 180 | 0.0 | 0.0 | 0.00 | 0.00 | 0.00 | 100 | |
| 20260503201024 | 30 | 180 | 0.0 | 0.0 | 0.00 | 0.00 | 0.00 | 100 | |
| 20260503200523 | 30 | 180 | 0.0 | 0.0 | 0.00 | 0.00 | 0.00 | 100 | |
| 20260503200023 | 30 | 180 | 0.0 | 6.4 | 0.00 | 0.00 | 0.00 | 100 | |
| 20260503195523 | 30 | 180 | 0.0 | 4.8 | 0.00 | 0.00 | 0.00 | 100 | |
| 20260503195022 | 31 | 180 | 0.0 | 0.0 | 0.00 | 0.00 | 0.00 | 100 | |
| 20260503194022 | 29 | 180 | 0.0 | 3.2 | 0.00 | 0.00 | 0.00 | 100 | |
| 20260503193021 | 30 | 180 | 0.0 | 0.0 | 0.00 | 0.00 | 0.00 | 100 | |
| 20260503192021 | 30 | 180 | 0.0 | 0.0 | 0.00 | 0.00 | 0.00 | 100 | |
| 20260503191521 | 30 | 180 | 0.0 | 0.0 | 0.00 | 0.00 | 0.00 | 100 | |
| 20260503191020 | 29 | 180 | 0.0 | 4.8 | 0.00 | 0.00 | 0.00 | 100 | |
| 20260503190520 | 29 | 180 | 0.0 | 0.0 | 0.00 | 0.00 | 0.00 | 100 | |
| 20260503190020 | 30 | 180 | 0.0 | 0.0 | 0.00 | 0.00 | 0.00 | 100 | |
| 20260503185520 | 29 | 180 | 0.0 | 0.0 | 0.00 | 0.00 | 0.00 | 100 | |
| 20260503185019 | 30 | 180 | 0.0 | 0.0 | 0.00 | 0.00 | 0.00 | 100 | |
| 20260503184519 | 30 | 180 | 0.0 | 0.0 | 0.00 | 0.00 | 0.00 | 100 | |
| 20260503184019 | 30 | 180 | 0.0 | 0.0 | 0.00 | 0.00 | 0.00 | 100 | |
| 20260503183018 | 32 | 180 | 0.0 | 0.0 | 0.00 | 0.00 | 0.00 | 100 | |
| 20260503181612 | 30 | 180 | 0.0 | 6.4 | 0.00 | 0.00 | 0.00 | 100 | |
| 20260503181112 | 31 | 180 | 0.0 | 9.7 | 0.00 | 0.00 | 0.00 | 100 | |
| 20260503180611 | 31 | 180 | 0.0 | 6.4 | 0.00 | 0.00 | 0.00 | 100 | |
| 20260503180111 | 30 | 180 | 0.0 | 6.4 | 0.00 | 0.00 | 0.00 | 100 | |
| 20260503175611 | 33 | 180 | 0.0 | 0.0 | 0.00 | 0.00 | 0.00 | 100 | |
| 20260503175111 | 31 | 180 | 0.0 | 4.8 | 0.00 | 0.00 | 0.00 | 100 | |
| 20260503174610 | 30 | 180 | 0.0 | 9.7 | 0.00 | 0.00 | 0.00 | 100 | |
| 20260503173610 | 30 | 180 | 0.0 | 9.7 | 0.00 | 0.00 | 0.00 | 100 | |
| 20260503173109 | 31 | 180 | 4.8 | 14.5 | 0.00 | 0.00 | 0.00 | 100 | |
| 20260503172609 | 32 | 180 | 0.0 | 0.0 | 0.00 | 0.00 | 0.00 | 100 | |
| 20260503172106 | 31 | 180 | 0.0 | 11.3 | 0.00 | 0.00 | 0.00 | 100 | |
| 20260503171606 | 30 | 180 | 0.0 | 9.7 | 0.00 | 0.00 | 0.00 | 100 | |
| 20260503171106 | 31 | 180 | 0.0 | 0.0 | 0.00 | 0.00 | 0.00 | 100 | |
| 20260503170605 | 30 | 180 | 0.0 | 0.0 | 0.00 | 0.00 | 0.00 | 100 | |
| 20260503170105 | 30 | 180 | 0.0 | 0.0 | 0.00 | 0.00 | 0.00 | 100 |